Weather History for Dickinson, ND

Change the Weather History Date:

Friday, May 24, 2013

  Actual Average Record
Temperature  
Mean Temperature 59 °F 56 °F  
Max Temperature 69 °F 68 °F 92 °F (1985)
Min Temperature 48 °F 43 °F 23 °F (1924)
Degree Days  
Heating Degree Days 6 10  
Month to date heating degree days 305 318  
Since 1 July heating degree days 8407 8380  
Cooling Degree Days 0 0  
Month to date cooling degree days 9 0  
Year to date cooling degree days 9 1  
Growing Degree Days 8 (Base 50)    
Moisture  
Dew Point 47 °F    
Average Humidity 65    
Maximum Humidity 90    
Minimum Humidity 39    
Precipitation  
Precipitation T in 0.08 in 2.67 in (2014)
Month to date precipitation 3.62 1.73  
Year to date precipitation 4.68 4.52  
Sea Level Pressure  
Sea Level Pressure 29.91 in    
Wind  
Wind Speed 15 mph (SE)    
Max Wind Speed 31 mph    
Max Gust Speed 38 mph    
Visibility 10 miles    
Events Rain    
T = Trace of Precipitation, MM = Missing Value Source: NWS Daily Summary

Daily Weather History Graph

Daily Weather History Graph

Search for Another Location

Airport:

Trip Planner

Search our weather history database for the weather conditions in past years. The results will help you decide how hot, cold, wet, or windy it might be!

Date:

Astronomy

May. 24, 2013 Rise Set
Actual Time 5:06 AM MDT 8:30 PM MDT
Civil Twilight 4:29 AM MDT 9:07 PM MDT
Nautical Twilight 3:40 AM MDT 9:56 PM MDT
Astronomical Twilight 2:37 AM MDT 11:00 PM MDT
Moon 8:12 PM MDT (5/24) 4:44 AM MDT (5/24)
Length of Visible Light 16h 38m
Length of Day
15h 23m
Full, 100% of the Moon is Illuminated
May 24
Full
May 24
Full
May 31
Last Quarter
Jun 8
New
Jun 16
First Quarter

Hourly Weather History & Observations

Time (MDT) Temp. Dew Point Humidity Pressure Visibility Wind Dir Wind Speed Gust Speed Precip Events Conditions
12:56 AM 52.0 °F 43.0 °F 71% 29.98 in 10.0 mi SE 25.3 mph 32.2 mph N/A   Clear
1:56 AM 52.0 °F 42.1 °F 69% 29.96 in 10.0 mi SE 20.7 mph 31.1 mph N/A   Clear
2:56 AM 51.1 °F 42.1 °F 71% 29.93 in 10.0 mi SE 27.6 mph 34.5 mph N/A   Clear
3:56 AM 50.0 °F 41.0 °F 71% 29.91 in 10.0 mi SE 25.3 mph 33.4 mph N/A   Clear
4:56 AM 48.9 °F 39.0 °F 69% 29.92 in 10.0 mi ESE 17.3 mph 26.5 mph N/A   Scattered Clouds
5:56 AM 50.0 °F 39.0 °F 66% 29.90 in 10.0 mi SE 20.7 mph - N/A   Overcast
6:56 AM 51.1 °F 39.9 °F 66% 29.89 in 10.0 mi SE 25.3 mph 31.1 mph N/A   Overcast
7:56 AM 54.0 °F 43.0 °F 66% 29.88 in 10.0 mi SE 23.0 mph 35.7 mph N/A   Overcast
8:28 AM 55.4 °F 44.6 °F 67% 29.89 in 10.0 mi SE 25.3 mph 29.9 mph N/A   Mostly Cloudy
8:56 AM 55.9 °F 45.0 °F 67% 29.88 in 10.0 mi SE 23.0 mph 32.2 mph N/A   Overcast
9:56 AM 61.0 °F 48.0 °F 62% 29.86 in 10.0 mi SSE 25.3 mph 38.0 mph N/A   Mostly Cloudy
10:08 AM 62.6 °F 48.2 °F 59% 29.87 in 10.0 mi SSE 23.0 mph 35.7 mph N/A   Scattered Clouds
10:27 AM 60.8 °F 48.2 °F 63% 29.87 in 10.0 mi SSE 28.8 mph 35.7 mph N/A   Mostly Cloudy
10:56 AM 64.0 °F 50.0 °F 60% 29.86 in 10.0 mi SSE 26.5 mph 35.7 mph N/A   Mostly Cloudy
11:12 AM 64.4 °F 51.8 °F 64% 29.87 in 10.0 mi SSE 24.2 mph 32.2 mph N/A   Mostly Cloudy
11:56 AM 64.9 °F 52.0 °F 63% 29.86 in 10.0 mi South 16.1 mph 25.3 mph N/A   Overcast
12:56 PM 64.9 °F 53.1 °F 65% 29.87 in 10.0 mi SSW 16.1 mph 24.2 mph N/A   Overcast
1:40 PM 60.8 °F 55.4 °F 82% 29.90 in 6.0 mi South 11.5 mph - 0.00 in Rain Light Rain
1:56 PM 61.0 °F 57.0 °F 87% 29.90 in 10.0 mi SSW 5.8 mph - 0.00 in   Overcast
2:56 PM 63.0 °F 57.0 °F 81% 29.91 in 10.0 mi NNW 10.4 mph - N/A   Mostly Cloudy
3:56 PM 68.0 °F 55.0 °F 63% 29.90 in 10.0 mi Variable 6.9 mph - N/A   Partly Cloudy
4:56 PM 68.0 °F 48.9 °F 50% 29.91 in 10.0 mi NW 13.8 mph 20.7 mph N/A   Partly Cloudy
5:56 PM 68.0 °F 42.1 °F 39% 29.92 in 10.0 mi NNW 9.2 mph - N/A   Clear
6:56 PM 66.9 °F 43.0 °F 42% 29.93 in 10.0 mi North 5.8 mph - N/A   Clear
7:56 PM 63.0 °F 46.0 °F 54% 29.94 in 10.0 mi NE 3.5 mph - N/A   Clear
8:56 PM 57.0 °F 43.0 °F 59% 29.96 in 10.0 mi NNE 5.8 mph - N/A   Clear
9:56 PM 53.1 °F 45.0 °F 74% 29.98 in 10.0 mi ENE 6.9 mph - N/A   Clear
10:56 PM 51.1 °F 48.0 °F 89% 29.98 in 10.0 mi East 8.1 mph - N/A   Clear
11:56 PM 51.1 °F 48.9 °F 92% 30.00 in 8.0 mi ESE 6.9 mph - N/A   Clear